Location: Molveno
(46.1500°N, 10.9667°E)
Time: 07:26:52
(UTC+00:00)

Cosmos 2369 Rocket - Pass Details

Date: 05 July 2020
Orbit: 830 x 851 km, 71.0° (Epoch: 05 August)

Event Time Altitude Azimuth Distance (km) Brightness Sun altitude
Rises 23:38:05 0° 334° (NNW) 3,383 6.3 -21.1°
Reaches altitude 10° 23:40:32 10° 335° (NNW) 2,446 5.4 -21.0°
Maximum altitude 23:46:09 82° 63° (ENE) 846 2.2 -21.0°
Enters shadow 23:48:39 35° 148° (SSE) 1,329 2.8 -20.9°
